Portada
METAR-TAF:

METAR-TAF

Aeroports :

Aeroport de Jiddah Rei Abdulaziz

Jiddah, Aràbia Saudita

latitud: 21-42N, longitud: 039-11E, altitud: 15 m

Observació

L'informe es va fer fa 10 minuts, a les 15:00 UTC
Vent 10 kt del Nord/Nord-Oest
Temperatura 26°C
Humitat 58%
Pressió 1012 hPa
Visibilitat 10 km o més
sense núvols per sota de 1500 mi sense presència de cumulonimbus.

METAR: OEJN 091500Z 33010KT CAVOK 26/17 Q1012 NOSIG

Hora: 18:10 (15:10 UTC)

Pronòstic

L'informe es va fer fa 4 hores i 10 minuts, a les 11:00 UTC
Pronòstic vàlid del 09 a les 12 UTC al 10 a les 18 UTC
Vent 14 kt del Nord/Nord-Oest
Visibilitat 10 km o més
Núvols disperses a una alçada de 4000 ft
Evolucionant progressivament
l' 09 a les 18 UTC al 09 a les 20 UTC
Vent 5 kt del Nord/Nord-Est

TAF: OEJN 091100Z 0912/1018 33014KT 9999 SCT040 BECMG 0918/0920 03005KT

Observacions i pronòstics meteorològics de més de 4000 aeroports (METAR i TAF).

Les estacions disponibles són els punts grocs i vermells al mapa.

Posi el ratolí al punt desitjat per veure el nom de l'estació.

Feu clic per veure les observacions i els pronòstics meteorològics.

Per canviar el mapa: feu clic els botons verds amb una creu de color negre per apropar; al botó verd amb un guió per allunyar la imatge; o en les fletxes verdes per a mapes adjacents.


METAR-TAF: